User: anonymous   Login
Location: Unspecified
(0.0000°N, 0.0000°E)
Time: 15:28:34
(UTC+00:00)
Language:

USA 255 - Orbit

View from above orbital plane
View from above orbital plane
View from above satellite
View from above satellite

Ground track
Ground track

The orbit data is extracted from the following two-line orbital elements,

1 40101U 14043C   18269.72574389 0.00000000  00000-0  00000-0 0    02
2 40101   2.8211  75.6991 0014439 243.8520 116.0113  0.98725380    09
Epoch (UTC): 26 September 2018 17:25:04
Eccentricity: 0.0014439
inclination: 2.8211°
perigee height: 36164 km
apogee height: 36287 km
right ascension of ascending node: 75.6991°
argument of perigee: 243.8520°
revolutions per day: 0.98725380
mean anomaly at epoch: 116.0113°
orbit number at epoch: 0

The dashed part of the orbit path shows where the satellite is in the earth's shadow,  

DLR